Time,TemperatureF,DewpointF,PressureIn,WindDirection,WindDirectionDegrees,WindSpeedMPH,WindSpeedGustMPH,Humidity,HourlyPrecipIn,Conditions,Clouds,dailyrainin,SoftwareType,DateUTC
2013-03-17 00:00:00,23.7,19.9,30.06,NW,310,7.0,9.0,85,0.00,,---,0.08,VWS V13.01,2013-03-17 04:00:00,
2013-03-17 00:06:00,23.6,19.5,30.06,NW,309,1.0,7.0,84,0.00,,---,0.00,VWS V13.01,2013-03-17 04:06:00,
2013-03-17 00:12:00,23.6,19.5,30.07,NW,309,2.0,7.0,84,0.00,,---,0.00,VWS V13.01,2013-03-17 04:12:00,
2013-03-17 00:17:00,23.6,19.5,30.08,NW,304,6.0,10.0,84,0.00,,---,0.00,VWS V13.01,2013-03-17 04:17:00,
2013-03-17 00:22:00,23.6,19.5,30.07,NW,309,2.0,11.0,84,0.00,,---,0.00,VWS V13.01,2013-03-17 04:22:00,
2013-03-17 00:27:00,23.6,19.5,30.08,NW,307,0.0,11.0,84,0.00,,---,0.00,VWS V13.01,2013-03-17 04:27:00,
2013-03-17 00:32:00,23.6,19.5,30.08,NW,307,2.0,5.0,84,0.00,,---,0.00,VWS V13.01,2013-03-17 04:32:00,
2013-03-17 00:38:00,23.6,19.5,30.08,NW,320,4.0,6.0,84,0.00,,---,0.00,VWS V13.01,2013-03-17 04:38:00,
2013-03-17 00:43:00,23.7,19.3,30.08,NW,321,0.0,6.0,83,0.00,,---,0.00,VWS V13.01,2013-03-17 04:43:00,
2013-03-17 00:48:00,23.7,19.6,30.07,NW,321,4.0,6.0,84,0.00,,---,0.00,VWS V13.01,2013-03-17 04:48:00,
2013-03-17 00:53:00,23.7,19.6,30.08,NW,320,0.0,7.0,84,0.00,,---,0.00,VWS V13.01,2013-03-17 04:53:00,
2013-03-17 00:58:00,23.7,19.6,30.09,NW,320,5.0,7.0,84,0.00,,---,0.00,VWS V13.01,2013-03-17 04:58:00,
2013-03-17 01:04:00,23.7,19.6,30.08,NW,319,0.0,6.0,84,0.00,,---,0.00,VWS V13.01,2013-03-17 05:04:00,
2013-03-17 01:09:00,23.7,19.3,30.09,NNW,329,2.0,7.0,83,0.00,,---,0.00,VWS V13.01,2013-03-17 05:09:00,
2013-03-17 01:14:00,23.6,19.2,30.08,NW,309,1.0,10.0,83,0.00,,---,0.00,VWS V13.01,2013-03-17 05:14:00,
2013-03-17 01:19:00,23.4,19.0,30.08,NW,309,0.0,10.0,83,0.00,,---,0.00,VWS V13.01,2013-03-17 05:19:00,
2013-03-17 01:24:00,23.2,18.8,30.09,NW,309,0.0,10.0,83,0.00,,---,0.00,VWS V13.01,2013-03-17 05:24:00,
2013-03-17 01:29:00,22.7,18.0,30.09,NW,309,0.0,10.0,82,0.00,,---,0.00,VWS V13.01,2013-03-17 05:29:00,
2013-03-17 01:34:00,22.0,17.6,30.09,NW,309,0.0,0.0,83,0.00,,---,0.00,VWS V13.01,2013-03-17 05:34:00,
2013-03-17 01:39:00,21.3,17.2,30.09,NW,309,0.0,0.0,84,0.00,,---,0.00,VWS V13.01,2013-03-17 05:39:00,
2013-03-17 01:44:00,20.6,16.8,30.09,NW,309,0.0,0.0,85,0.00,,---,0.00,VWS V13.01,2013-03-17 05:44:00,
2013-03-17 01:50:00,19.5,15.5,30.09,NW,309,0.0,0.0,84,0.00,,---,0.00,VWS V13.01,2013-03-17 05:50:00,
2013-03-17 01:55:00,18.5,15.0,30.10,NW,309,0.0,0.0,86,0.00,,---,0.00,VWS V13.01,2013-03-17 05:55:00,
2013-03-17 02:00:00,17.9,14.7,30.10,NW,309,0.0,0.0,87,0.00,,---,0.00,VWS V13.01,2013-03-17 06:00:00,
2013-03-17 02:05:00,17.5,14.6,30.10,NW,309,0.0,0.0,88,0.00,,---,0.00,VWS V13.01,2013-03-17 06:05:00,
2013-03-17 02:11:00,16.5,13.6,30.10,NW,309,0.0,0.0,88,0.00,,---,0.00,VWS V13.01,2013-03-17 06:11:00,
2013-03-17 02:16:00,15.8,12.9,30.10,NW,309,0.0,0.0,88,0.00,,---,0.00,VWS V13.01,2013-03-17 06:16:00,
2013-03-17 02:22:00,15.2,12.6,30.11,NW,309,0.0,0.0,89,0.00,,---,0.00,VWS V13.01,2013-03-17 06:22:00,
2013-03-17 02:27:00,15.2,12.8,30.11,NW,309,0.0,0.0,90,0.00,,---,0.00,VWS V13.01,2013-03-17 06:27:00,
2013-03-17 02:32:00,14.3,11.7,30.12,NW,309,0.0,0.0,89,0.00,,---,0.00,VWS V13.01,2013-03-17 06:32:00,
2013-03-17 02:37:00,14.3,11.9,30.13,NW,309,0.0,0.0,90,0.00,,---,0.00,VWS V13.01,2013-03-17 06:37:00,
2013-03-17 02:42:00,15.3,13.4,30.13,NW,309,0.0,0.0,92,0.00,,---,0.00,VWS V13.01,2013-03-17 06:42:00,
2013-03-17 02:47:00,15.6,13.7,30.13,NW,309,0.0,0.0,92,0.00,,---,0.00,VWS V13.01,2013-03-17 06:47:00,
2013-03-17 02:52:00,16.3,14.4,30.13,NW,309,4.0,5.0,92,0.00,,---,0.00,VWS V13.01,2013-03-17 06:52:00,
2013-03-17 02:57:00,17.4,15.7,30.13,NW,309,4.0,5.0,93,0.00,,---,0.00,VWS V13.01,2013-03-17 06:57:00,
2013-03-17 03:03:00,18.0,16.3,30.13,NW,309,4.0,5.0,93,0.00,,---,0.00,VWS V13.01,2013-03-17 07:03:00,
2013-03-17 03:08:00,18.3,16.6,30.13,NW,309,4.0,5.0,93,0.00,,---,0.00,VWS V13.01,2013-03-17 07:08:00,
2013-03-17 03:13:00,18.5,16.6,30.14,NW,309,4.0,5.0,92,0.00,,---,0.00,VWS V13.01,2013-03-17 07:13:00,
2013-03-17 03:18:00,18.7,17.0,30.13,NW,309,0.0,5.0,93,0.00,,---,0.00,VWS V13.01,2013-03-17 07:18:00,
2013-03-17 03:23:00,18.8,16.9,30.12,NW,309,0.0,5.0,92,0.00,,---,0.00,VWS V13.01,2013-03-17 07:23:00,
2013-03-17 03:28:00,18.9,17.0,30.13,NW,309,0.0,5.0,92,0.00,,---,0.00,VWS V13.01,2013-03-17 07:28:00,
2013-03-17 03:34:00,19.0,17.1,30.13,NW,309,0.0,0.0,92,0.00,,---,0.00,VWS V13.01,2013-03-17 07:34:00,
2013-03-17 03:39:00,19.0,17.1,30.13,NW,309,0.0,0.0,92,0.00,,---,0.00,VWS V13.01,2013-03-17 07:39:00,
2013-03-17 03:44:00,19.0,17.1,30.13,NW,309,0.0,0.0,92,0.00,,---,0.00,VWS V13.01,2013-03-17 07:44:00,
2013-03-17 03:49:00,19.1,17.2,30.13,NW,309,0.0,0.0,92,0.00,,---,0.00,VWS V13.01,2013-03-17 07:49:00,
2013-03-17 03:55:00,19.3,17.4,30.13,NW,309,0.0,0.0,92,0.00,,---,0.00,VWS V13.01,2013-03-17 07:55:00,
2013-03-17 04:00:00,19.5,17.6,30.13,NW,309,0.0,0.0,92,0.00,,---,0.00,VWS V13.01,2013-03-17 08:00:00,
2013-03-17 04:05:00,19.6,17.7,30.14,NW,309,0.0,0.0,92,0.00,,---,0.00,VWS V13.01,2013-03-17 08:05:00,
2013-03-17 04:10:00,19.7,17.8,30.14,NW,309,0.0,1.0,92,0.00,,---,0.00,VWS V13.01,2013-03-17 08:10:00,
2013-03-17 04:15:00,19.8,17.9,30.14,NW,309,0.0,1.0,92,0.00,,---,0.00,VWS V13.01,2013-03-17 08:15:00,
2013-03-17 04:20:00,19.9,18.0,30.14,NW,309,0.0,1.0,92,0.00,,---,0.00,VWS V13.01,2013-03-17 08:20:00,
2013-03-17 04:26:00,20.0,18.0,30.14,NW,309,0.0,1.0,92,0.00,,---,0.00,VWS V13.01,2013-03-17 08:26:00,
2013-03-17 04:32:00,20.0,18.0,30.14,NW,309,0.0,0.0,92,0.00,,---,0.00,VWS V13.01,2013-03-17 08:32:00,
2013-03-17 04:37:00,20.0,18.0,30.14,NW,309,0.0,0.0,92,0.00,,---,0.00,VWS V13.01,2013-03-17 08:37:00,
2013-03-17 04:42:00,20.1,18.1,30.14,NW,309,0.0,0.0,92,0.00,,---,0.00,VWS V13.01,2013-03-17 08:42:00,
2013-03-17 04:47:00,20.0,18.0,30.14,NW,309,0.0,0.0,92,0.00,,---,0.00,VWS V13.01,2013-03-17 08:47:00,
2013-03-17 04:53:00,20.1,17.9,30.14,NW,309,0.0,0.0,91,0.00,,---,0.00,VWS V13.01,2013-03-17 08:53:00,
2013-03-17 04:58:00,20.1,18.1,30.14,NW,309,0.0,0.0,92,0.00,,---,0.00,VWS V13.01,2013-03-17 08:58:00,
2013-03-17 05:03:00,20.1,18.1,30.14,NW,309,0.0,0.0,92,0.00,,---,0.00,VWS V13.01,2013-03-17 09:03:00,
2013-03-17 05:08:00,20.1,18.1,30.14,NW,309,0.0,0.0,92,0.00,,---,0.00,VWS V13.01,2013-03-17 09:08:00,
2013-03-17 05:13:00,20.2,18.2,30.14,NW,309,0.0,0.0,92,0.00,,---,0.00,VWS V13.01,2013-03-17 09:13:00,
2013-03-17 05:19:00,20.2,18.2,30.15,NW,309,0.0,0.0,92,0.00,,---,0.00,VWS V13.01,2013-03-17 09:19:00,
2013-03-17 05:24:00,20.2,18.2,30.16,NW,309,0.0,0.0,92,0.00,,---,0.00,VWS V13.01,2013-03-17 09:24:00,
2013-03-17 05:29:00,20.3,18.4,30.16,NW,309,0.0,0.0,92,0.00,,---,0.00,VWS V13.01,2013-03-17 09:29:00,
2013-03-17 05:35:00,20.3,18.4,30.16,NW,309,0.0,0.0,92,0.00,,---,0.00,VWS V13.01,2013-03-17 09:35:00,
2013-03-17 05:40:00,20.4,18.5,30.16,NW,309,0.0,1.0,92,0.00,,---,0.00,VWS V13.01,2013-03-17 09:40:00,
2013-03-17 05:45:00,20.4,18.5,30.15,NW,309,0.0,1.0,92,0.00,,---,0.00,VWS V13.01,2013-03-17 09:45:00,
2013-03-17 05:51:00,20.5,18.5,30.16,NW,309,0.0,1.0,92,0.00,,---,0.00,VWS V13.01,2013-03-17 09:51:00,
2013-03-17 05:56:00,20.6,18.6,30.16,NW,309,0.0,1.0,92,0.00,,---,0.00,VWS V13.01,2013-03-17 09:56:00,
2013-03-17 06:01:00,20.6,18.6,30.16,NW,309,0.0,0.0,92,0.00,,---,0.00,VWS V13.01,2013-03-17 10:01:00,
2013-03-17 06:06:00,20.6,18.6,30.16,NW,309,0.0,0.0,92,0.00,,---,0.00,VWS V13.01,2013-03-17 10:06:00,
2013-03-17 06:12:00,20.4,18.5,30.16,NW,309,0.0,0.0,92,0.00,,---,0.00,VWS V13.01,2013-03-17 10:12:00,
2013-03-17 06:17:00,20.3,18.4,30.17,NW,309,0.0,0.0,92,0.00,,---,0.00,VWS V13.01,2013-03-17 10:17:00,
2013-03-17 06:22:00,20.3,18.4,30.17,NW,309,0.0,0.0,92,0.00,,---,0.00,VWS V13.01,2013-03-17 10:22:00,
2013-03-17 06:28:00,20.3,18.4,30.17,NW,309,0.0,0.0,92,0.00,,---,0.00,VWS V13.01,2013-03-17 10:28:00,
2013-03-17 06:33:00,20.3,18.4,30.17,NW,309,0.0,0.0,92,0.00,,---,0.00,VWS V13.01,2013-03-17 10:33:00,
2013-03-17 06:38:00,20.1,18.1,30.17,NW,309,0.0,0.0,92,0.00,,---,0.00,VWS V13.01,2013-03-17 10:38:00,
2013-03-17 06:43:00,19.7,17.8,30.18,NW,309,0.0,0.0,92,0.00,,---,0.00,VWS V13.01,2013-03-17 10:43:00,
2013-03-17 06:48:00,19.7,17.8,30.18,NW,309,0.0,0.0,92,0.00,,---,0.00,VWS V13.01,2013-03-17 10:48:00,
2013-03-17 06:54:00,19.9,18.0,30.19,NW,309,0.0,0.0,92,0.00,,---,0.00,VWS V13.01,2013-03-17 10:54:00,
2013-03-17 06:59:00,20.0,18.0,30.19,NW,309,0.0,0.0,92,0.00,,---,0.00,VWS V13.01,2013-03-17 10:59:00,
2013-03-17 07:04:00,20.0,18.0,30.20,NW,309,0.0,0.0,92,0.00,,---,0.00,VWS V13.01,2013-03-17 11:04:00,
2013-03-17 07:09:00,20.0,18.0,30.20,NW,309,0.0,0.0,92,0.00,,---,0.00,VWS V13.01,2013-03-17 11:09:00,
2013-03-17 07:14:00,19.9,18.0,30.21,NW,309,0.0,0.0,92,0.00,,---,0.00,VWS V13.01,2013-03-17 11:14:00,
2013-03-17 07:19:00,19.7,17.8,30.20,NW,309,0.0,0.0,92,0.00,,---,0.00,VWS V13.01,2013-03-17 11:19:00,
2013-03-17 07:25:00,19.7,18.0,30.20,NW,309,0.0,0.0,93,0.00,,---,0.00,VWS V13.01,2013-03-17 11:25:00,
2013-03-17 07:30:00,19.8,18.1,30.21,NW,309,0.0,0.0,93,0.00,,---,0.00,VWS V13.01,2013-03-17 11:30:00,
2013-03-17 07:35:00,19.8,18.1,30.21,NW,309,0.0,0.0,93,0.00,,---,0.00,VWS V13.01,2013-03-17 11:35:00,
2013-03-17 07:40:00,20.0,18.3,30.22,NW,309,0.0,0.0,93,0.00,,---,0.00,VWS V13.01,2013-03-17 11:40:00,
2013-03-17 07:45:00,20.3,18.6,30.22,NW,309,0.0,0.0,93,0.00,,---,0.00,VWS V13.01,2013-03-17 11:45:00,
2013-03-17 07:50:00,20.5,18.8,30.23,NW,309,0.0,0.0,93,0.00,,---,0.00,VWS V13.01,2013-03-17 11:50:00,
2013-03-17 07:56:00,20.7,19.0,30.24,NW,309,0.0,0.0,93,0.00,,---,0.00,VWS V13.01,2013-03-17 11:56:00,
2013-03-17 08:02:00,20.9,19.2,30.24,NW,309,0.0,0.0,93,0.00,,---,0.00,VWS V13.01,2013-03-17 12:02:00,
2013-03-17 08:07:00,21.2,19.5,30.24,NW,309,0.0,0.0,93,0.00,,---,0.00,VWS V13.01,2013-03-17 12:07:00,
2013-03-17 08:12:00,21.4,19.7,30.24,NW,309,0.0,0.0,93,0.00,,---,0.00,VWS V13.01,2013-03-17 12:12:00,
2013-03-17 08:17:00,21.6,19.9,30.24,NW,309,0.0,0.0,93,0.00,,---,0.00,VWS V13.01,2013-03-17 12:17:00,
2013-03-17 08:22:00,21.8,20.1,30.24,NW,309,0.0,0.0,93,0.00,,---,0.00,VWS V13.01,2013-03-17 12:22:00,
2013-03-17 08:28:00,22.0,20.3,30.25,NW,309,0.0,0.0,93,0.00,,---,0.00,VWS V13.01,2013-03-17 12:28:00,
2013-03-17 08:33:00,22.1,20.4,30.25,NW,309,0.0,0.0,93,0.00,,---,0.00,VWS V13.01,2013-03-17 12:33:00,
2013-03-17 08:38:00,22.4,20.7,30.25,NW,309,0.0,0.0,93,0.00,,---,0.00,VWS V13.01,2013-03-17 12:38:00,
2013-03-17 08:44:00,22.7,21.0,30.25,NW,309,0.0,0.0,93,0.00,,---,0.00,VWS V13.01,2013-03-17 12:44:00,
2013-03-17 08:49:00,23.0,21.3,30.25,NW,309,0.0,0.0,93,0.00,,---,0.00,VWS V13.01,2013-03-17 12:49:00,
2013-03-17 08:54:00,23.1,21.4,30.25,NW,309,0.0,0.0,93,0.00,,---,0.00,VWS V13.01,2013-03-17 12:54:00,
2013-03-17 08:59:00,23.5,21.5,30.25,NW,309,0.0,0.0,92,0.00,,---,0.00,VWS V13.01,2013-03-17 12:59:00,
2013-03-17 09:05:00,24.0,22.0,30.25,NW,309,0.0,0.0,92,0.00,,---,0.00,VWS V13.01,2013-03-17 13:05:00,
2013-03-17 09:10:00,24.4,22.4,30.25,NW,309,0.0,0.0,92,0.00,,---,0.00,VWS V13.01,2013-03-17 13:10:00,
2013-03-17 09:15:00,24.8,22.8,30.26,NW,309,0.0,1.0,92,0.00,,---,0.00,VWS V13.01,2013-03-17 13:15:00,
2013-03-17 09:20:00,24.4,21.9,30.27,NW,309,2.0,4.0,90,0.00,,---,0.00,VWS V13.01,2013-03-17 13:20:00,
2013-03-17 09:26:00,24.2,22.0,30.26,NW,309,2.0,4.0,91,0.00,,---,0.00,VWS V13.01,2013-03-17 13:26:00,
2013-03-17 09:31:00,24.2,22.0,30.27,NW,309,4.0,4.0,91,0.00,,---,0.00,VWS V13.01,2013-03-17 13:31:00,
2013-03-17 09:36:00,24.4,21.9,30.27,NW,309,0.0,4.0,90,0.00,,---,0.00,VWS V13.01,2013-03-17 13:36:00,
2013-03-17 09:41:00,24.5,22.0,30.27,NW,309,0.0,4.0,90,0.00,,---,0.00,VWS V13.01,2013-03-17 13:41:00,
2013-03-17 09:46:00,24.4,21.9,30.27,NW,309,1.0,4.0,90,0.00,,---,0.00,VWS V13.01,2013-03-17 13:46:00,
2013-03-17 09:52:00,24.3,21.8,30.27,NW,309,1.0,4.0,90,0.00,,---,0.00,VWS V13.01,2013-03-17 13:52:00,
2013-03-17 09:57:00,24.3,21.8,30.27,NW,309,0.0,4.0,90,0.00,,---,0.00,VWS V13.01,2013-03-17 13:57:00,
2013-03-17 10:02:00,24.4,21.9,30.27,NW,309,0.0,0.0,90,0.00,,---,0.00,VWS V13.01,2013-03-17 14:02:00,
2013-03-17 10:07:00,24.5,22.0,30.27,NW,309,0.0,0.0,90,0.00,,---,0.00,VWS V13.01,2013-03-17 14:07:00,
2013-03-17 10:12:00,24.7,22.2,30.27,NW,309,0.0,2.0,90,0.00,,---,0.00,VWS V13.01,2013-03-17 14:12:00,
2013-03-17 10:17:00,25.1,22.6,30.28,NW,309,0.0,2.0,90,0.00,,---,0.00,VWS V13.01,2013-03-17 14:17:00,
2013-03-17 10:23:00,25.3,22.2,30.28,NW,310,0.0,6.0,88,0.00,,---,0.00,VWS V13.01,2013-03-17 14:23:00,
2013-03-17 10:28:00,25.4,22.1,30.27,NW,310,0.0,6.0,87,0.00,,---,0.00,VWS V13.01,2013-03-17 14:28:00,
2013-03-17 10:33:00,25.6,22.3,30.28,NW,309,2.0,4.0,87,0.00,,---,0.00,VWS V13.01,2013-03-17 14:33:00,
2013-03-17 10:38:00,25.5,21.6,30.28,NW,306,4.0,8.0,85,0.00,,---,0.00,VWS V13.01,2013-03-17 14:38:00,
2013-03-17 10:43:00,25.2,21.3,30.28,WNW,303,4.0,10.0,85,0.01,,---,0.01,VWS V13.01,2013-03-17 14:43:00,
2013-03-17 10:49:00,25.2,21.3,30.29,WNW,303,4.0,10.0,85,0.01,,---,0.01,VWS V13.01,2013-03-17 14:49:00,
2013-03-17 10:54:00,25.3,21.4,30.29,WNW,303,0.0,10.0,85,0.01,,---,0.01,VWS V13.01,2013-03-17 14:54:00,
2013-03-17 10:59:00,25.5,21.4,30.29,North,10,0.0,10.0,84,0.01,,---,0.01,VWS V13.01,2013-03-17 14:59:00,
2013-03-17 11:04:00,25.6,20.9,30.30,North,5,0.0,6.0,82,0.01,,---,0.01,VWS V13.01,2013-03-17 15:04:00,
2013-03-17 11:09:00,25.7,20.7,30.30,NNE,13,0.0,6.0,81,0.01,,---,0.01,VWS V13.01,2013-03-17 15:09:00,
2013-03-17 11:15:00,25.8,20.8,30.31,NNW,341,6.0,9.0,81,0.01,,---,0.01,VWS V13.01,2013-03-17 15:15:00,
2013-03-17 11:20:00,25.8,20.8,30.31,NNW,331,0.0,9.0,81,0.01,,---,0.01,VWS V13.01,2013-03-17 15:20:00,
2013-03-17 11:25:00,25.9,21.2,30.32,NNW,331,1.0,9.0,82,0.01,,---,0.01,VWS V13.01,2013-03-17 15:25:00,
2013-03-17 11:30:00,25.8,20.5,30.32,NE,55,0.0,3.0,80,0.01,,---,0.01,VWS V13.01,2013-03-17 15:30:00,
2013-03-17 11:35:00,25.7,20.7,30.32,NE,46,0.0,6.0,81,0.01,,---,0.01,VWS V13.01,2013-03-17 15:35:00,
2013-03-17 11:40:00,26.1,21.1,30.32,NE,46,0.0,6.0,81,0.01,,---,0.01,VWS V13.01,2013-03-17 15:40:00,
2013-03-17 11:46:00,26.5,20.9,30.32,NE,46,0.0,6.0,79,0.01,,---,0.01,VWS V13.01,2013-03-17 15:46:00,
2013-03-17 11:52:00,26.8,20.6,30.32,East,90,5.0,6.0,77,0.01,,---,0.01,VWS V13.01,2013-03-17 15:52:00,
2013-03-17 11:57:00,26.2,19.7,30.32,NE,49,2.0,10.0,76,0.01,,---,0.01,VWS V13.01,2013-03-17 15:57:00,
2013-03-17 12:03:00,26.0,19.5,30.33,NNE,28,0.0,7.0,76,0.00,,---,0.01,VWS V13.01,2013-03-17 16:03:00,
2013-03-17 12:08:00,26.1,19.0,30.33,NNE,25,4.0,7.0,74,0.00,,---,0.01,VWS V13.01,2013-03-17 16:08:00,
2013-03-17 12:13:00,26.4,18.9,30.33,NNW,339,0.0,8.0,73,0.00,,---,0.01,VWS V13.01,2013-03-17 16:13:00,
2013-03-17 12:19:00,26.8,19.3,30.32,NNW,338,0.0,8.0,73,0.00,,---,0.01,VWS V13.01,2013-03-17 16:19:00,
2013-03-17 12:24:00,27.2,19.7,30.32,North,349,0.0,8.0,73,0.00,,---,0.01,VWS V13.01,2013-03-17 16:24:00,
2013-03-17 12:29:00,27.0,19.2,30.33,East,94,7.0,8.0,72,0.00,,---,0.01,VWS V13.01,2013-03-17 16:29:00,
2013-03-17 12:34:00,26.9,18.4,30.33,NE,56,0.0,7.0,70,0.00,,---,0.01,VWS V13.01,2013-03-17 16:34:00,
2013-03-17 12:39:00,26.9,17.4,30.33,ENE,63,2.0,9.0,67,0.00,,---,0.01,VWS V13.01,2013-03-17 16:39:00,
2013-03-17 12:44:00,26.9,17.1,30.33,ENE,76,3.0,9.0,66,0.00,,---,0.01,VWS V13.01,2013-03-17 16:44:00,
2013-03-17 12:49:00,27.0,16.8,30.32,ENE,61,0.0,10.0,65,0.00,,---,0.01,VWS V13.01,2013-03-17 16:49:00,
2013-03-17 12:55:00,27.2,16.6,30.32,ENE,74,3.0,10.0,64,0.00,,---,0.01,VWS V13.01,2013-03-17 16:55:00,
2013-03-17 13:00:00,27.5,16.9,30.32,ENE,74,0.0,10.0,64,0.00,,---,0.01,VWS V13.01,2013-03-17 17:00:00,
2013-03-17 13:05:00,27.8,17.2,30.32,ENE,61,0.0,7.0,64,0.00,,---,0.01,VWS V13.01,2013-03-17 17:05:00,
2013-03-17 13:11:00,28.2,17.2,30.33,NE,39,3.0,7.0,63,0.00,,---,0.01,VWS V13.01,2013-03-17 17:11:00,
2013-03-17 13:16:00,28.9,18.3,30.32,East,79,0.0,7.0,64,0.00,,---,0.01,VWS V13.01,2013-03-17 17:16:00,
2013-03-17 13:22:00,29.1,17.7,30.33,NE,41,0.0,7.0,62,0.00,,---,0.01,VWS V13.01,2013-03-17 17:22:00,
2013-03-17 13:27:00,29.6,18.6,30.33,NNE,14,0.0,7.0,63,0.00,,---,0.01,VWS V13.01,2013-03-17 17:27:00,
2013-03-17 13:32:00,30.2,19.1,30.33,North,5,5.0,5.0,63,0.00,,---,0.01,VWS V13.01,2013-03-17 17:32:00,
2013-03-17 13:37:00,30.0,17.4,30.33,North,360,0.0,10.0,59,0.00,,---,0.01,VWS V13.01,2013-03-17 17:37:00,
2013-03-17 13:42:00,29.4,17.2,30.33,NNE,13,0.0,10.0,60,0.00,,---,0.01,VWS V13.01,2013-03-17 17:42:00,
2013-03-17 13:48:00,29.4,17.2,30.33,NNE,26,2.0,10.0,60,0.00,,---,0.01,VWS V13.01,2013-03-17 17:48:00,
2013-03-17 13:53:00,29.3,16.8,30.33,NE,56,4.0,10.0,59,0.00,,---,0.01,VWS V13.01,2013-03-17 17:53:00,
2013-03-17 13:58:00,28.9,16.0,30.32,NNE,32,0.0,10.0,58,0.00,,---,0.01,VWS V13.01,2013-03-17 17:58:00,
2013-03-17 14:03:00,29.1,16.6,30.33,ENE,59,2.0,2.0,59,0.00,,---,0.01,VWS V13.01,2013-03-17 18:03:00,
2013-03-17 14:09:00,29.0,16.5,30.32,NE,36,0.0,7.0,59,0.00,,---,0.01,VWS V13.01,2013-03-17 18:09:00,
2013-03-17 14:14:00,29.3,16.0,30.32,ENE,69,0.0,7.0,57,0.00,,---,0.01,VWS V13.01,2013-03-17 18:14:00,
2013-03-17 14:19:00,29.8,16.8,30.32,ENE,68,0.0,7.0,58,0.00,,---,0.01,VWS V13.01,2013-03-17 18:19:00,
2013-03-17 14:25:00,30.2,16.8,30.32,East,81,0.0,7.0,57,0.00,,---,0.01,VWS V13.01,2013-03-17 18:25:00,
2013-03-17 14:30:00,29.5,16.6,30.32,ESE,105,4.0,8.0,58,0.00,,---,0.01,VWS V13.01,2013-03-17 18:30:00,
2013-03-17 14:35:00,29.2,17.1,30.32,ESE,103,2.0,6.0,60,0.00,,---,0.01,VWS V13.01,2013-03-17 18:35:00,
2013-03-17 14:40:00,29.3,16.8,30.32,NNE,12,7.0,10.0,59,0.00,,---,0.01,VWS V13.01,2013-03-17 18:40:00,
2013-03-17 14:45:00,29.7,16.8,30.32,NE,48,0.0,10.0,58,0.00,,---,0.01,VWS V13.01,2013-03-17 18:45:00,
2013-03-17 14:51:00,30.7,17.3,30.31,NE,41,2.0,10.0,57,0.00,,---,0.01,VWS V13.01,2013-03-17 18:51:00,
2013-03-17 14:56:00,30.6,17.6,30.32,NE,53,0.0,10.0,58,0.00,,---,0.01,VWS V13.01,2013-03-17 18:56:00,
2013-03-17 15:03:00,30.1,17.1,30.31,East,87,5.0,5.0,58,0.00,,---,0.01,VWS V13.01,2013-03-17 19:03:00,
2013-03-17 15:08:00,29.9,16.5,30.31,NE,36,2.0,7.0,57,0.00,,---,0.01,VWS V13.01,2013-03-17 19:08:00,
2013-03-17 15:13:00,30.2,16.8,30.31,NNW,342,6.0,9.0,57,0.00,,---,0.01,VWS V13.01,2013-03-17 19:13:00,
2013-03-17 15:18:00,30.4,17.0,30.31,NNW,336,3.0,9.0,57,0.00,,---,0.01,VWS V13.01,2013-03-17 19:18:00,
2013-03-17 15:24:00,30.6,17.2,30.31,NNW,327,0.0,9.0,57,0.01,,---,0.02,VWS V13.01,2013-03-17 19:24:00,
2013-03-17 15:29:00,30.8,17.4,30.31,NNW,342,0.0,9.0,57,0.01,,---,0.02,VWS V13.01,2013-03-17 19:29:00,
2013-03-17 15:34:00,30.6,17.6,30.32,North,11,6.0,10.0,58,0.01,,---,0.02,VWS V13.01,2013-03-17 19:34:00,
2013-03-17 15:39:00,30.5,17.9,30.32,NNE,32,0.0,12.0,59,0.01,,---,0.02,VWS V13.01,2013-03-17 19:39:00,
2013-03-17 15:45:00,30.6,18.0,30.32,NNE,13,5.0,12.0,59,0.01,,---,0.02,VWS V13.01,2013-03-17 19:45:00,
2013-03-17 15:50:00,30.7,18.5,30.31,NNW,338,5.0,12.0,60,0.01,,---,0.02,VWS V13.01,2013-03-17 19:50:00,
2013-03-17 15:55:00,30.7,17.7,30.32,NE,46,0.0,12.0,58,0.01,,---,0.02,VWS V13.01,2013-03-17 19:55:00,
2013-03-17 16:00:00,30.6,16.8,30.32,NE,46,0.0,0.0,56,0.01,,---,0.02,VWS V13.01,2013-03-17 20:00:00,
2013-03-17 16:05:00,31.0,18.0,30.32,NE,46,0.0,1.0,58,0.01,,---,0.02,VWS V13.01,2013-03-17 20:05:00,
2013-03-17 16:10:00,31.0,17.6,30.32,NE,46,0.0,1.0,57,0.01,,---,0.02,VWS V13.01,2013-03-17 20:10:00,
2013-03-17 16:16:00,30.7,16.5,30.32,NNE,15,4.0,8.0,55,0.01,,---,0.02,VWS V13.01,2013-03-17 20:16:00,
2013-03-17 16:22:00,30.6,18.0,30.32,NNE,25,0.0,8.0,59,0.01,,---,0.02,VWS V13.01,2013-03-17 20:22:00,
2013-03-17 16:27:00,30.8,17.4,30.33,NW,321,6.0,8.0,57,0.01,,---,0.02,VWS V13.01,2013-03-17 20:27:00,
2013-03-17 16:32:00,30.8,17.4,30.33,North,360,0.0,8.0,57,0.00,,---,0.02,VWS V13.01,2013-03-17 20:32:00,
2013-03-17 16:37:00,30.8,17.8,30.33,NE,42,0.0,8.0,58,0.00,,---,0.02,VWS V13.01,2013-03-17 20:37:00,
2013-03-17 16:42:00,30.9,18.7,30.33,NNE,26,8.0,8.0,60,0.00,,---,0.02,VWS V13.01,2013-03-17 20:42:00,
2013-03-17 16:48:00,30.6,18.0,30.33,NNE,33,2.0,8.0,59,0.00,,---,0.02,VWS V13.01,2013-03-17 20:48:00,
2013-03-17 16:53:00,30.5,17.9,30.33,NE,39,0.0,8.0,59,0.00,,---,0.02,VWS V13.01,2013-03-17 20:53:00,
2013-03-17 16:58:00,30.7,18.1,30.33,NNW,343,3.0,8.0,59,0.00,,---,0.02,VWS V13.01,2013-03-17 20:58:00,
2013-03-17 17:04:00,30.3,17.7,30.33,NE,53,5.0,9.0,59,0.00,,---,0.02,VWS V13.01,2013-03-17 21:04:00,
2013-03-17 17:09:00,30.2,16.8,30.33,NE,38,0.0,9.0,57,0.00,,---,0.02,VWS V13.01,2013-03-17 21:09:00,
2013-03-17 17:14:00,30.3,18.1,30.33,ENE,57,2.0,9.0,60,0.00,,---,0.02,VWS V13.01,2013-03-17 21:14:00,
2013-03-17 17:20:00,30.3,17.3,30.33,NE,36,4.0,9.0,58,0.00,,---,0.02,VWS V13.01,2013-03-17 21:20:00,
2013-03-17 17:25:00,30.2,16.8,30.33,NE,34,0.0,9.0,57,0.00,,---,0.02,VWS V13.01,2013-03-17 21:25:00,
2013-03-17 17:30:00,30.1,16.7,30.33,NE,34,0.0,9.0,57,0.00,,---,0.02,VWS V13.01,2013-03-17 21:30:00,
2013-03-17 17:35:00,30.3,18.1,30.33,NE,34,0.0,3.0,60,0.00,,---,0.02,VWS V13.01,2013-03-17 21:35:00,
2013-03-17 17:40:00,30.2,17.2,30.33,NE,34,0.0,5.0,58,0.00,,---,0.02,VWS V13.01,2013-03-17 21:40:00,
2013-03-17 17:45:00,30.3,16.9,30.34,NNE,30,0.0,6.0,57,0.00,,---,0.02,VWS V13.01,2013-03-17 21:45:00,
2013-03-17 17:51:00,30.3,17.7,30.34,NNE,17,4.0,8.0,59,0.00,,---,0.02,VWS V13.01,2013-03-17 21:51:00,
2013-03-17 17:56:00,30.0,17.4,30.34,NE,37,0.0,8.0,59,0.00,,---,0.02,VWS V13.01,2013-03-17 21:56:00,
2013-03-17 18:02:00,29.8,16.8,30.34,NE,42,4.0,5.0,58,0.00,,---,0.02,VWS V13.01,2013-03-17 22:02:00,
2013-03-17 18:07:00,29.7,16.8,30.34,NE,46,0.0,6.0,58,0.00,,---,0.02,VWS V13.01,2013-03-17 22:07:00,
2013-03-17 18:12:00,29.5,17.0,30.35,ENE,67,0.0,6.0,59,0.00,,---,0.02,VWS V13.01,2013-03-17 22:12:00,
2013-03-17 18:17:00,29.3,16.4,30.35,ENE,67,0.0,6.0,58,0.00,,---,0.02,VWS V13.01,2013-03-17 22:17:00,
2013-03-17 18:23:00,29.2,16.7,30.34,East,94,0.0,6.0,59,0.00,,---,0.02,VWS V13.01,2013-03-17 22:23:00,
2013-03-17 18:28:00,29.3,16.4,30.34,ENE,63,6.0,9.0,58,0.00,,---,0.02,VWS V13.01,2013-03-17 22:28:00,
2013-03-17 18:33:00,29.4,16.5,30.35,NE,48,1.0,6.0,58,0.00,,---,0.02,VWS V13.01,2013-03-17 22:33:00,
2013-03-17 18:38:00,29.2,16.3,30.35,ENE,78,4.0,7.0,58,0.00,,---,0.02,VWS V13.01,2013-03-17 22:38:00,
2013-03-17 18:43:00,29.0,16.5,30.35,ENE,78,0.0,7.0,59,0.00,,---,0.02,VWS V13.01,2013-03-17 22:43:00,
2013-03-17 18:48:00,28.9,16.8,30.35,ENE,78,0.0,7.0,60,0.00,,---,0.02,VWS V13.01,2013-03-17 22:48:00,
2013-03-17 18:53:00,28.8,16.7,30.36,ENE,78,0.0,7.0,60,0.00,,---,0.02,VWS V13.01,2013-03-17 22:53:00,
2013-03-17 18:58:00,28.5,16.8,30.36,ENE,78,0.0,7.0,61,0.00,,---,0.02,VWS V13.01,2013-03-17 22:58:00,
2013-03-17 19:04:00,28.4,16.3,30.36,ENE,78,0.0,0.0,60,0.00,,---,0.02,VWS V13.01,2013-03-17 23:04:00,
2013-03-17 19:09:00,28.4,16.7,30.36,ENE,78,0.0,0.0,61,0.00,,---,0.02,VWS V13.01,2013-03-17 23:09:00,
2013-03-17 19:14:00,28.0,16.7,30.36,ENE,78,0.0,0.0,62,0.00,,---,0.02,VWS V13.01,2013-03-17 23:14:00,
2013-03-17 19:19:00,27.7,16.8,30.36,ENE,78,0.0,1.0,63,0.00,,---,0.02,VWS V13.01,2013-03-17 23:19:00,
2013-03-17 19:25:00,27.4,17.9,30.36,ENE,78,0.0,1.0,67,0.00,,---,0.02,VWS V13.01,2013-03-17 23:25:00,
2013-03-17 19:30:00,27.1,16.6,30.36,ENE,78,0.0,4.0,64,0.00,,---,0.02,VWS V13.01,2013-03-17 23:30:00,
2013-03-17 19:35:00,27.1,17.3,30.36,ENE,78,0.0,2.0,66,0.00,,---,0.02,VWS V13.01,2013-03-17 23:35:00,
2013-03-17 19:40:00,26.5,18.4,30.36,ENE,78,0.0,2.0,71,0.00,,---,0.02,VWS V13.01,2013-03-17 23:40:00,
2013-03-17 19:45:00,26.0,18.9,30.37,ENE,78,0.0,2.0,74,0.00,,---,0.02,VWS V13.01,2013-03-17 23:45:00,
2013-03-17 19:52:00,25.5,18.4,30.36,ENE,78,0.0,2.0,74,0.00,,---,0.02,VWS V13.01,2013-03-17 23:52:00,
2013-03-17 19:57:00,25.3,18.5,30.37,ENE,78,0.0,2.0,75,0.00,,---,0.02,VWS V13.01,2013-03-17 23:57:00,
2013-03-17 20:02:00,24.9,18.4,30.36,ENE,78,0.0,0.0,76,0.00,,---,0.02,VWS V13.01,2013-03-18 00:02:00,
2013-03-17 20:07:00,24.6,18.1,30.37,ENE,78,0.0,0.0,76,0.00,,---,0.02,VWS V13.01,2013-03-18 00:07:00,
2013-03-17 20:13:00,24.4,17.9,30.37,ENE,78,0.0,0.0,76,0.00,,---,0.02,VWS V13.01,2013-03-18 00:13:00,
2013-03-17 20:18:00,24.0,17.5,30.37,ENE,78,0.0,0.0,76,0.00,,---,0.02,VWS V13.01,2013-03-18 00:18:00,
2013-03-17 20:23:00,24.2,17.4,30.37,ENE,78,0.0,5.0,75,0.00,,---,0.02,VWS V13.01,2013-03-18 00:23:00,
2013-03-17 20:28:00,24.2,17.1,30.37,ENE,78,0.0,5.0,74,0.00,,---,0.02,VWS V13.01,2013-03-18 00:28:00,
2013-03-17 20:33:00,24.1,17.6,30.38,ENE,78,0.0,0.0,76,0.00,,---,0.02,VWS V13.01,2013-03-18 00:33:00,
2013-03-17 20:39:00,23.9,17.8,30.38,ENE,78,0.0,0.0,77,0.00,,---,0.02,VWS V13.01,2013-03-18 00:39:00,
2013-03-17 20:44:00,23.6,17.5,30.38,ENE,78,0.0,0.0,77,0.00,,---,0.02,VWS V13.01,2013-03-18 00:44:00,
2013-03-17 20:49:00,23.4,17.6,30.38,ENE,78,0.0,0.0,78,0.00,,---,0.02,VWS V13.01,2013-03-18 00:49:00,
2013-03-17 20:54:00,23.4,17.6,30.39,ENE,78,0.0,0.0,78,0.00,,---,0.02,VWS V13.01,2013-03-18 00:54:00,
2013-03-17 20:59:00,23.3,17.5,30.39,ENE,78,0.0,0.0,78,0.00,,---,0.02,VWS V13.01,2013-03-18 00:59:00,
2013-03-17 21:05:00,23.0,17.5,30.39,ENE,78,0.0,0.0,79,0.00,,---,0.02,VWS V13.01,2013-03-18 01:05:00,
2013-03-17 21:10:00,22.8,17.3,30.39,ENE,78,0.0,0.0,79,0.00,,---,0.02,VWS V13.01,2013-03-18 01:10:00,
2013-03-17 21:15:00,22.6,17.4,30.39,ENE,78,0.0,0.0,80,0.00,,---,0.02,VWS V13.01,2013-03-18 01:15:00,
2013-03-17 21:20:00,22.2,17.0,30.40,ENE,78,0.0,0.0,80,0.00,,---,0.02,VWS V13.01,2013-03-18 01:20:00,
2013-03-17 21:25:00,22.0,17.1,30.40,ENE,78,0.0,1.0,81,0.00,,---,0.02,VWS V13.01,2013-03-18 01:25:00,
2013-03-17 21:30:00,21.9,16.7,30.40,ENE,78,0.0,0.0,80,0.00,,---,0.02,VWS V13.01,2013-03-18 01:30:00,
2013-03-17 21:36:00,21.7,16.5,30.40,ENE,78,0.0,0.0,80,0.00,,---,0.02,VWS V13.01,2013-03-18 01:36:00,
2013-03-17 21:42:00,21.8,16.9,30.40,ENE,78,0.0,0.0,81,0.00,,---,0.02,VWS V13.01,2013-03-18 01:42:00,
2013-03-17 21:47:00,21.6,16.7,30.40,ENE,78,0.0,0.0,81,0.00,,---,0.02,VWS V13.01,2013-03-18 01:47:00,
2013-03-17 21:52:00,21.5,16.6,30.40,ENE,78,0.0,0.0,81,0.00,,---,0.02,VWS V13.01,2013-03-18 01:52:00,
2013-03-17 21:57:00,21.3,16.7,30.40,ENE,78,0.0,0.0,82,0.00,,---,0.02,VWS V13.01,2013-03-18 01:57:00,
2013-03-17 22:03:00,21.1,16.5,30.40,ENE,78,0.0,0.0,82,0.00,,---,0.02,VWS V13.01,2013-03-18 02:03:00,
2013-03-17 22:08:00,20.8,16.2,30.40,ENE,78,0.0,0.0,82,0.00,,---,0.02,VWS V13.01,2013-03-18 02:08:00,
2013-03-17 22:13:00,20.7,16.4,30.40,ENE,78,0.0,0.0,83,0.00,,---,0.02,VWS V13.01,2013-03-18 02:13:00,
2013-03-17 22:18:00,20.7,16.4,30.41,ENE,78,0.0,0.0,83,0.00,,---,0.02,VWS V13.01,2013-03-18 02:18:00,
2013-03-17 22:23:00,20.6,16.3,30.41,ENE,78,0.0,0.0,83,0.00,,---,0.02,VWS V13.01,2013-03-18 02:23:00,
2013-03-17 22:29:00,20.2,15.9,30.41,ENE,78,0.0,0.0,83,0.00,,---,0.02,VWS V13.01,2013-03-18 02:29:00,
2013-03-17 22:34:00,20.0,15.9,30.41,ENE,78,0.0,0.0,84,0.00,,---,0.02,VWS V13.01,2013-03-18 02:34:00,
2013-03-17 22:39:00,19.7,15.7,30.42,ENE,78,0.0,0.0,84,0.00,,---,0.02,VWS V13.01,2013-03-18 02:39:00,
2013-03-17 22:44:00,19.2,15.2,30.42,ENE,78,0.0,1.0,84,0.00,,---,0.02,VWS V13.01,2013-03-18 02:44:00,
2013-03-17 22:49:00,18.9,14.9,30.41,ENE,78,0.0,1.0,84,0.00,,---,0.02,VWS V13.01,2013-03-18 02:49:00,
2013-03-17 22:54:00,19.1,15.3,30.42,ENE,78,0.0,1.0,85,0.00,,---,0.02,VWS V13.01,2013-03-18 02:54:00,
2013-03-17 23:00:00,19.0,15.2,30.41,ENE,78,0.0,1.0,85,0.00,,---,0.02,VWS V13.01,2013-03-18 03:00:00,
2013-03-17 23:05:00,18.7,14.9,30.41,ENE,78,0.0,0.0,85,0.00,,---,0.02,VWS V13.01,2013-03-18 03:05:00,
2013-03-17 23:10:00,18.4,14.9,30.40,ENE,78,0.0,0.0,86,0.00,,---,0.02,VWS V13.01,2013-03-18 03:10:00,
2013-03-17 23:16:00,18.1,14.6,30.40,ENE,78,0.0,0.0,86,0.00,,---,0.02,VWS V13.01,2013-03-18 03:16:00,
2013-03-17 23:21:00,17.7,14.5,30.40,ENE,78,0.0,0.0,87,0.00,,---,0.02,VWS V13.01,2013-03-18 03:21:00,
2013-03-17 23:26:00,17.4,14.2,30.40,ENE,78,0.0,1.0,87,0.00,,---,0.02,VWS V13.01,2013-03-18 03:26:00,
2013-03-17 23:31:00,17.2,14.0,30.40,ENE,78,0.0,0.0,87,0.00,,---,0.02,VWS V13.01,2013-03-18 03:31:00,
2013-03-17 23:36:00,16.8,13.6,30.40,ENE,78,0.0,0.0,87,0.00,,---,0.02,VWS V13.01,2013-03-18 03:36:00,
2013-03-17 23:41:00,16.4,13.5,30.40,ENE,78,0.0,0.0,88,0.00,,---,0.02,VWS V13.01,2013-03-18 03:41:00,
2013-03-17 23:47:00,16.2,13.3,30.39,ENE,78,0.0,0.0,88,0.00,,---,0.02,VWS V13.01,2013-03-18 03:47:00,
2013-03-17 23:52:00,15.9,13.0,30.39,ENE,78,0.0,0.0,88,0.00,,---,0.02,VWS V13.01,2013-03-18 03:52:00,
2013-03-17 23:58:00,16.0,13.3,30.39,ENE,78,0.0,0.0,89,0.00,,---,0.02,VWS V13.01,2013-03-18 03:58:00,